Dewpoint
50 48 49 47 47 46 46 45 45 44 43 42 43 45 48 49 50 48 49 53 54 55 56 57 57 59 60 62 64 67 66 67 67 68 68 68 68 67 67 67 67 67 67
49 47 46 45 45 45 45 45 44 43 42 42 41 44 49 49 50 50 47 49 54 53 53 55 59 60 60 59 60 62 67 66 66 68 67 67 67 67 67 67 67 67 67
49 48 46 46 46 46 47 46 46 44 43 41 41 40 46 47 44 49 47 47 47 52 54 51 53 54 56 59 60 61 62 63 66 67 67 66 66 67 67 66 66 66 67
50 49 47 48 48 46 45 44 44 43 42 41 41 38 43 47 46 45 44 46 45 44 48 52 50 51 52 54 55 57 59 62 63 66 66 66 65 65 66 66 66 66 66
51 49 48 48 49 45 45 44 43 44 41 40 36 37 41 41 44 41 41 43 43 43 41 47 50 52 50 49 52 55 56 56 58 63 64 65 66 65 65 66 66 66 66
50 48 47 49 47 44 44 44 45 43 42 41 35 36 40 41 45 41 40 39 40 42 41 42 41 41 50 48 48 51 53 54 55 57 60 64 66 65 66 65 65 65 66
50 49 47 47 46 45 45 45 42 41 39 42 37 36 36 38 47 37 40 38 40 40 42 42 41 41 40 48 48 48 50 52 53 54 54 60 64 65 64 64 65 64 64
50 47 48 46 47 42 44 44 43 39 35 39 37 36 31 33 36 36 37 39 40 39 37 39 40 41 42 41 44 47 48 51 52 52 53 54 60 63 64 64 64 64 65
48 48 46 45 44 41 38 40 40 40 35 35 39 37 32 30 34 36 36 37 38 36 37 38 39 41 41 41 43 45 49 47 49 50 50 52 53 60 62 64 64 64 63
41 41 41 39 38 34 35 34 32 35 34 31 33 33 38 37 32 31 32 31 31 31 35 33 36 34 37 39 44 46 47 47 48 48 48 49 51 52 60 61 61 63 63
35 32 34 35 35 31 33 33 33 34 32 31 30 29 30 29 30 26 23 24 24 24 26 28 29 30 33 33 34 37 45 43 44 47 47 48 50 51 54 59 60 59 61
29 31 31 34 34 32 31 30 33 33 34 32 30 28 25 24 23 23 22 21 20 21 23 24 26 25 28 28 30 40 41 38 39 43 46 46 51 53 54 55 58 58 59
26 30 32 32 30 31 31 32 32 33 32 31 31 28 26 25 25 24 23 20 20 22 23 24 24 24 21 26 27 37 35 35 40 39 39 44 45 45 47 51 54 56 57
27 30 29 29 30 30 31 31 29 30 32 32 31 30 27 25 26 25 23 24 22 21 21 24 23 23 25 26 30 35 29 34 35 36 38 38 42 45 46 45 47 50 53
21 28 28 27 28 29 29 31 28 29 30 30 30 30 28 26 27 26 26 25 22 20 17 19 19 25 23 23 24 26 27 31 34 35 36 37 39 42 46 45 45 45 47
27 26 25 26 26 26 27 28 28 27 28 28 25 28 27 26 25 24 25 23 22 20 19 20 20 23 25 21 25 26 25 31 34 35 35 37 40 42 44 44 44 45 45
25 23 23 24 24 25 25 26 28 25 27 27 27 26 26 25 22 22 23 21 21 21 20 21 21 24 26 26 25 26 25 24 23 30 34 36 38 40 42 43 43 44 44
25 21 23 22 22 23 24 25 25 26 26 26 26 25 24 18 23 21 20 22 22 23 21 21 23 23 26 27 26 26 23 18 20 23 29 31 33 34 37 42 41 42 42
23 23 23 23 22 24 23 24 25 25 26 26 25 24 23 22 20 19 21 21 21 20 23 25 25 25 26 26 26 26 25 25 20 24 29 31 31 33 36 41 41 41 41
22 22 24 23 24 22 21 22 23 25 25 24 26 24 22 21 19 20 20 22 21 22 22 23 24 27 27 29 28 27 26 25 23 16 21 24 28 30 33 35 41 41 40
20 21 21 22 22 21 15 23 23 24 23 22 23 20 21 20 20 20 18 21 22 24 24 25 27 28 29 30 27 29 28 27 26 26 22 26 28 30 33 38 41 41 40
19 21 20 21 21 16 21 22 23 21 21 20 19 19 19 19 18 20 22 23 23 23 25 26 28 28 27 27 29 30 30 28 26 24 23 26 30 33 34 35 40 41 39
20 20 20 20 20 21 21 21 22 20 20 20 19 18 16 11 19 17 22 22 24 26 26 26 30 28 30 30 32 31 31 29 26 23 24 25 25 29 32 30 39 40 40
19 19 20 20 20 18 19 20 21 20 20 19 19 19 19 18 18 19 18 20 21 22 23 23 28 30 31 32 29 28 31 29 26 23 22 25 25 27 30 36 39 41 39
17 18 17 18 19 20 19 19 19 18 16 17 18 19 19 18 19 20 19 21 22 22 23 26 28 30 30 30 29 28 28 27 24 25 26 26 29 30 32 34 35 39 38
15 15 15 17 19 20 19 18 19 17 18 19 19 18 22 20 20 20 19 22 23 23 25 26 27 28 30 30 29 29 27 25 23 25 29 27 26 29 31 37 36 38 38
Lifted_Index
8 8 8 8 8 9 9 9 9 9 9 10 10 9 8 7 7 7 7 8 8 8 7 6 4 2 1 1 1 0 -0 -1 -1 -2 -3 -3 -3 -3 -3 -3 -3 -3 -3
8 8 9 9 9 10 10 9 9 9 9 10 10 9 8 8 7 7 7 8 8 8 8 7 6 5 3 2 1 1 -0 -0 -1 -1 -2 -3 -3 -3 -3 -3 -4 -4 -3
9 9 9 10 10 10 10 10 10 10 10 10 10 9 8 8 8 8 8 8 9 9 9 9 8 7 6 5 4 2 1 0 -0 -1 -1 -2 -2 -2 -3 -3 -3 -4 -3
9 9 9 10 10 10 10 10 10 10 10 10 10 9 8 8 8 9 9 9 9 10 10 9 9 9 8 7 6 5 4 3 1 0 -0 -1 -1 -2 -2 -3 -3 -3 -3
9 9 9 10 10 10 10 10 10 10 10 10 10 10 9 8 8 9 9 9 10 10 10 10 10 9 9 8 7 7 6 5 4 2 1 -0 -1 -1 -2 -2 -2 -2 -3
9 9 10 10 10 10 10 10 10 10 10 10 10 10 9 9 8 9 10 10 10 11 11 11 11 10 10 9 8 7 7 6 5 4 2 1 -1 -1 -1 -2 -2 -1 -1
9 10 10 10 10 10 10 11 11 11 11 11 11 10 10 9 9 10 10 10 11 11 11 11 11 11 11 10 10 9 8 7 6 5 4 2 -0 -1 -1 -1 -1 -1 -1
10 10 10 11 11 11 11 12 12 12 12 12 11 11 11 11 11 11 11 11 12 12 12 12 12 12 12 11 11 11 10 9 8 6 5 3 1 -0 -1 -1 -1 -1 -1
11 11 12 12 13 13 14 14 14 14 14 13 13 12 12 12 12 12 12 13 13 13 13 13 13 13 13 12 12 12 12 12 10 9 7 5 3 2 0 -0 -1 -0 -0
11 12 14 15 15 16 16 16 16 16 15 15 15 14 14 14 14 14 14 15 15 15 15 15 15 15 14 14 13 13 13 13 13 11 10 8 6 4 3 1 0 0 1
12 14 16 17 17 18 18 18 17 17 17 16 16 17 17 17 17 17 17 17 18 17 17 17 17 16 16 15 15 15 15 15 15 14 12 10 8 7 5 3 2 2 1
14 16 18 18 18 18 18 18 18 17 17 17 18 18 18 18 19 19 19 19 19 19 19 18 18 18 17 17 17 17 17 17 17 16 14 12 11 9 7 6 4 3 3
17 18 18 19 19 19 18 18 18 18 18 18 18 19 19 20 20 20 20 20 20 19 19 19 19 19 19 19 18 18 18 18 18 17 16 14 13 11 10 8 6 5 5
18 19 19 19 19 19 18 18 18 18 18 19 19 19 20 20 20 20 20 20 20 19 19 19 20 20 20 20 20 20 20 19 19 19 17 16 14 13 11 10 8 7 7
19 19 19 19 19 19 19 19 19 19 19 19 20 20 20 20 21 21 21 21 20 20 19 20 20 20 21 21 21 21 20 20 19 19 18 17 15 13 12 11 10 9 8
19 19 20 20 20 19 19 19 19 19 20 20 20 20 21 21 21 21 21 21 21 21 20 21 21 21 21 21 21 21 20 20 19 19 18 17 16 15 14 13 12 11 10
20 20 20 20 20 20 20 20 20 20 20 20 20 21 21 21 22 22 22 22 22 21 21 21 20 20 20 20 20 20 20 20 19 19 18 18 17 16 15 15 14 13 12
20 20 20 20 20 20 20 20 20 20 20 20 20 21 21 22 22 22 22 22 22 21 21 20 20 19 19 19 19 18 18 18 18 19 18 18 18 17 16 15 15 14 13
20 20 20 20 20 20 20 20 20 20 20 20 21 21 21 22 22 22 22 22 21 21 20 20 19 19 18 17 16 16 15 15 15 16 16 17 17 17 17 15 15 14 14
20 21 20 20 20 20 20 21 21 20 20 21 21 21 22 22 23 23 22 22 21 21 20 19 18 17 15 14 13 12 12 12 12 12 13 14 14 15 15 14 14 14 14
21 21 21 20 21 21 21 21 21 21 21 21 21 21 22 22 23 23 22 21 21 20 19 18 17 15 12 10 9 8 9 9 10 10 11 12 12 12 12 11 11 12 12
21 21 20 20 21 21 21 21 21 21 21 21 21 21 21 22 22 22 22 21 20 19 18 17 15 12 10 8 6 6 6 8 9 9 10 10 10 10 9 8 8 9 10
21 20 20 20 21 21 21 21 21 21 21 21 21 21 21 21 22 22 21 20 19 18 17 15 13 10 8 6 5 5 5 7 8 9 9 10 10 9 8 7 6 6 7
20 20 20 20 21 21 21 21 21 21 21 21 21 21 21 21 22 22 21 20 18 17 15 12 11 9 7 5 5 5 5 7 8 8 9 9 9 8 7 6 5 5 5
20 20 20 20 21 21 21 21 21 21 21 21 21 21 21 21 22 22 21 20 18 16 13 11 9 8 6 5 5 5 6 7 7 8 8 8 8 7 7 6 5 4 4
20 20 20 20 21 21 21 21 21 22 22 21 21 21 21 21 21 22 21 20 18 16 13 10 9 7 5 4 4 5 6 7 7 7 7 8 8 7 6 5 4 4 4